Location: *
(48.8489°N, 2.3218°E)
Time: 13:57:27
(UTC+00:00)

Meteor 2-21 - Pass Details

Date: 23 August 2019
Orbit: 935 x 966 km, 82.5° (Epoch: 21 September)

Event Time Altitude Azimuth Distance (km) Brightness Sun altitude
Rises 20:12:07 0° 350° (N) 3,646 8.2 -12.7°
Reaches altitude 10° 20:14:38 10° 352° (N) 2,700 7.4 -13.0°
Maximum altitude 20:20:50 77° 79° (E) 991 4.4 -13.8°
Enters shadow 20:26:35 12° 166° (SSE) 2,534 6.2 -14.6°
